Back to Top

Language: 

My Weather Underground Personal Weather Station Historical Data with Graphs...

Delerius Weather Station Historical Data
Daily Summary for February 10, 2017 Units:  English    Metric   Both
« Previous Day
Next Day »
Daily Weekly Monthly Yearly Custom
  High: Low: Average:
Temperature: 36.3 °F 33.0 °F 34.2 °F
Dew Point: 34.2 °F 30.2 °F 31.8 °F
Humidity: 95 % 85 % 91 %
Wind Speed: 7.0 mph 0.0 mph 3.1 mph
Wind Gust: 10.0 mph - -
Wind:- - ESE
Pressure: 30.34 in 30.31 in -
Precipitation: 0.01 in    
Historical Graphs
 
 
Tabular Data for February 10, 2017
Time Temperature Dew Point Pressure Wind Wind Speed Wind Gust Humidity Rainfall Rate (Hourly) solar Conditions
00:20 33.3 °F 31.8 °F 30.34 in NE 3.0 mph 3.0 mph 94 % 0.00 in 0 W/m2
00:35 33.3 °F 32.0 °F 30.34 in NE 3.0 mph 3.0 mph 95 % 0.00 in 0 W/m2
00:40 33.3 °F 32.0 °F 30.33 in ENE 2.0 mph 3.0 mph 95 % 0.00 in 0 W/m2
00:45 33.3 °F 32.0 °F 30.34 in NE 1.0 mph 3.0 mph 95 % 0.00 in 0 W/m2
00:55 33.2 °F 31.9 °F 30.33 in ENE 1.0 mph 2.0 mph 95 % 0.00 in 0 W/m2
01:05 33.2 °F 31.9 °F 30.34 in NE 1.0 mph 6.0 mph 95 % 0.00 in 0 W/m2
01:10 33.2 °F 31.9 °F 30.33 in NE 1.0 mph 6.0 mph 95 % 0.00 in 0 W/m2
01:15 33.2 °F 31.9 °F 30.33 in NNE 2.0 mph 6.0 mph 95 % 0.00 in 0 W/m2
01:20 33.2 °F 31.9 °F 30.34 in NE 2.0 mph 2.0 mph 95 % 0.00 in 0 W/m2
01:25 33.2 °F 31.9 °F 30.34 in NE 2.0 mph 4.0 mph 95 % 0.00 in 0 W/m2
01:35 33.2 °F 31.9 °F 30.33 in NE 2.0 mph 6.0 mph 95 % 0.00 in 0 W/m2
01:40 33.2 °F 31.9 °F 30.33 in NE 3.0 mph 3.0 mph 95 % 0.00 in 0 W/m2
01:45 33.2 °F 31.9 °F 30.34 in NE 2.0 mph 6.0 mph 95 % 0.00 in 0 W/m2
01:50 33.2 °F 31.9 °F 30.34 in NE 2.0 mph 6.0 mph 95 % 0.00 in 0 W/m2
01:55 33.2 °F 31.9 °F 30.33 in ENE 2.0 mph 6.0 mph 95 % 0.00 in 0 W/m2
02:00 33.2 °F 31.9 °F 30.34 in ENE 1.0 mph 1.0 mph 95 % 0.00 in 0 W/m2
02:10 33.2 °F 31.9 °F 30.34 in ENE 1.0 mph 6.0 mph 95 % 0.00 in 0 W/m2
02:15 33.2 °F 31.9 °F 30.34 in ENE 1.0 mph 6.0 mph 95 % 0.00 in 0 W/m2
02:20 33.2 °F 31.9 °F 30.33 in NE 2.0 mph 6.0 mph 95 % 0.00 in 0 W/m2
02:25 33.2 °F 31.9 °F 30.33 in NE 2.0 mph 6.0 mph 95 % 0.00 in 0 W/m2
02:35 33.2 °F 31.9 °F 30.33 in ENE 1.0 mph 6.0 mph 95 % 0.00 in 0 W/m2
02:40 33.1 °F 31.8 °F 30.33 in NE 2.0 mph 2.0 mph 95 % 0.00 in 0 W/m2
02:45 33.1 °F 31.8 °F 30.33 in ENE 2.0 mph 6.0 mph 95 % 0.00 in 0 W/m2
02:55 33.1 °F 31.8 °F 30.33 in ENE 1.0 mph 3.0 mph 95 % 0.00 in 0 W/m2
03:00 33.1 °F 31.8 °F 30.32 in ENE 1.0 mph 6.0 mph 95 % 0.00 in 0 W/m2
03:05 33.1 °F 31.8 °F 30.32 in ENE 1.0 mph 6.0 mph 95 % 0.00 in 0 W/m2
03:10 33.1 °F 31.8 °F 30.32 in ENE 2.0 mph 6.0 mph 95 % 0.00 in 0 W/m2
03:20 33.1 °F 31.8 °F 30.32 in NE 4.0 mph 4.0 mph 95 % 0.00 in 0 W/m2
03:25 33.1 °F 31.8 °F 30.32 in ENE 4.0 mph 5.0 mph 95 % 0.00 in 0 W/m2
03:30 33.1 °F 31.8 °F 30.32 in NE 3.0 mph 6.0 mph 95 % 0.00 in 0 W/m2
03:35 33.1 °F 31.8 °F 30.32 in ENE 3.0 mph 6.0 mph 95 % 0.00 in 0 W/m2
03:40 33.1 °F 31.8 °F 30.32 in ENE 3.0 mph 7.0 mph 95 % 0.00 in 0 W/m2
03:50 33.1 °F 31.8 °F 30.32 in ENE 3.0 mph 3.0 mph 95 % 0.00 in 0 W/m2
03:55 33.1 °F 31.8 °F 30.32 in NNE 3.0 mph 4.0 mph 95 % 0.00 in 0 W/m2
04:00 33.1 °F 31.6 °F 30.32 in NE 2.0 mph 6.0 mph 94 % 0.00 in 0 W/m2
04:05 33.1 °F 31.6 °F 30.32 in ENE 2.0 mph 6.0 mph 94 % 0.00 in 0 W/m2
04:10 33.1 °F 31.6 °F 30.32 in ENE 2.0 mph 2.0 mph 94 % 0.00 in 0 W/m2
04:20 33.1 °F 31.8 °F 30.32 in NE 1.0 mph 1.0 mph 95 % 0.00 in 0 W/m2
04:25 33.1 °F 31.6 °F 30.32 in NE 1.0 mph 6.0 mph 94 % 0.00 in 0 W/m2
04:30 33.1 °F 31.6 °F 30.32 in ENE 1.0 mph 6.0 mph 94 % 0.00 in 0 W/m2
04:35 33.1 °F 31.6 °F 30.32 in ENE 1.0 mph 6.0 mph 94 % 0.00 in 0 W/m2
04:40 33.1 °F 31.6 °F 30.32 in ENE 1.0 mph 6.0 mph 94 % 0.00 in 0 W/m2
04:45 33.1 °F 31.6 °F 30.32 in Calm   6.0 mph 94 % 0.00 in 0 W/m2
04:55 33.1 °F 31.6 °F 30.32 in Calm   2.0 mph 94 % 0.00 in 0 W/m2
05:00 33.1 °F 31.6 °F 30.31 in Calm   6.0 mph 94 % 0.00 in 0 W/m2
05:05 33.1 °F 31.6 °F 30.31 in ENE 1.0 mph 6.0 mph 94 % 0.00 in 0 W/m2
05:10 33.1 °F 31.6 °F 30.32 in ENE 1.0 mph 1.0 mph 94 % 0.00 in 0 W/m2
05:15 33.1 °F 31.6 °F 30.32 in ENE 1.0 mph 6.0 mph 94 % 0.00 in 0 W/m2
05:25 33.0 °F 31.5 °F 30.32 in NNE 1.0 mph 6.0 mph 94 % 0.00 in 0 W/m2
05:30 33.1 °F 31.6 °F 30.32 in NE 1.0 mph 6.0 mph 94 % 0.00 in 0 W/m2
05:35 33.0 °F 31.5 °F 30.32 in NE 1.0 mph 6.0 mph 94 % 0.00 in 0 W/m2
05:40 33.0 °F 31.5 °F 30.32 in NE 1.0 mph 6.0 mph 94 % 0.00 in 0 W/m2
05:45 33.1 °F 31.6 °F 30.32 in NE 2.0 mph 6.0 mph 94 % 0.00 in 0 W/m2
05:50 33.1 °F 31.6 °F 30.32 in NE 2.0 mph 6.0 mph 94 % 0.00 in 0 W/m2
06:00 33.1 °F 31.6 °F 30.32 in NE 3.0 mph 6.0 mph 94 % 0.00 in 0 W/m2
06:05 33.1 °F 31.6 °F 30.32 in NE 3.0 mph 6.0 mph 94 % 0.00 in 0 W/m2
06:10 33.1 °F 31.6 °F 30.32 in NE 3.0 mph 3.0 mph 94 % 0.00 in 0 W/m2
06:15 33.1 °F 31.6 °F 30.32 in ENE 2.0 mph 5.0 mph 94 % 0.00 in 0 W/m2
06:20 33.1 °F 31.6 °F 30.31 in NE 1.0 mph 6.0 mph 94 % 0.00 in 0 W/m2
06:30 33.1 °F 31.6 °F 30.31 in NE 3.0 mph 3.0 mph 94 % 0.00 in 0 W/m2
06:35 33.1 °F 31.6 °F 30.32 in NE 1.0 mph 6.0 mph 94 % 0.00 in 0 W/m2
06:40 33.1 °F 31.6 °F 30.32 in Calm   6.0 mph 94 % 0.00 in 0 W/m2
06:45 33.1 °F 31.6 °F 30.32 in NNE 1.0 mph 6.0 mph 94 % 0.00 in 0 W/m2
06:50 33.0 °F 31.5 °F 30.32 in NNE 1.0 mph 6.0 mph 94 % 0.00 in 0 W/m2
06:55 33.1 °F 31.6 °F 30.32 in NNE 1.0 mph 6.0 mph 94 % 0.00 in 0 W/m2
07:05 33.1 °F 31.6 °F 30.32 in NNE 2.0 mph 6.0 mph 94 % 0.00 in 0 W/m2
07:10 33.1 °F 31.3 °F 30.32 in NNE 3.0 mph 3.0 mph 93 % 0.00 in 0 W/m2
07:15 33.2 °F 31.4 °F 30.32 in NNE 4.0 mph 4.0 mph 93 % 0.00 in 0 W/m2
07:20 33.2 °F 31.4 °F 30.32 in NE 4.0 mph 4.0 mph 93 % 0.00 in 0 W/m2
07:25 33.2 °F 31.4 °F 30.32 in NE 2.0 mph 6.0 mph 93 % 0.00 in 0 W/m2
07:35 33.2 °F 31.4 °F 30.32 in NE 1.0 mph 6.0 mph 93 % 0.00 in 0 W/m2
07:40 33.3 °F 31.5 °F 30.32 in NE 1.0 mph 1.0 mph 93 % 0.00 in 0 W/m2
07:45 33.2 °F 31.4 °F 30.33 in Calm   6.0 mph 93 % 0.00 in 0 W/m2
07:50 33.3 °F 31.5 °F 30.33 in Calm   6.0 mph 93 % 0.00 in 0 W/m2
07:55 33.3 °F 31.5 °F 30.33 in Calm   6.0 mph 93 % 0.00 in 0 W/m2
08:00 33.3 °F 31.5 °F 30.32 in North 2.0 mph 7.0 mph 93 % 0.00 in 7 W/m2
08:10 33.3 °F 31.2 °F 30.33 in NE 3.0 mph 3.0 mph 92 % 0.00 in 5 W/m2
08:15 33.4 °F 31.3 °F 30.33 in NNE 3.0 mph 8.0 mph 92 % 0.00 in 12 W/m2
08:20 33.4 °F 31.1 °F 30.33 in NE 3.0 mph 6.0 mph 91 % 0.00 in 16 W/m2
08:25 33.4 °F 31.1 °F 30.33 in NE 3.0 mph 6.0 mph 91 % 0.00 in 18 W/m2
08:30 33.5 °F 31.2 °F 30.33 in NE 3.0 mph 6.0 mph 91 % 0.00 in 30 W/m2
08:40 33.6 °F 31.3 °F 30.33 in NE 3.0 mph 6.0 mph 91 % 0.00 in 40 W/m2
08:45 33.6 °F 31.3 °F 30.33 in ENE 3.0 mph 6.0 mph 91 % 0.00 in 37 W/m2
08:50 33.7 °F 31.4 °F 30.33 in NE 3.0 mph 6.0 mph 91 % 0.00 in 39 W/m2
08:55 33.8 °F 31.5 °F 30.33 in NE 2.0 mph 6.0 mph 91 % 0.00 in 37 W/m2
09:00 33.9 °F 31.8 °F 30.33 in NE 2.0 mph 6.0 mph 92 % 0.00 in 51 W/m2
09:05 33.9 °F 31.6 °F 30.33 in ENE 3.0 mph 6.0 mph 91 % 0.00 in 47 W/m2
09:15 34.0 °F 31.6 °F 30.33 in NE 3.0 mph 6.0 mph 91 % 0.00 in 62 W/m2
09:20 34.1 °F 31.7 °F 30.33 in NE 3.0 mph 3.0 mph 91 % 0.00 in 76 W/m2
09:25 34.2 °F 31.8 °F 30.33 in ENE 3.0 mph 4.0 mph 91 % 0.00 in 98 W/m2
09:35 34.3 °F 31.9 °F 30.33 in NNE 4.0 mph 6.0 mph 91 % 0.00 in 77 W/m2
09:40 34.3 °F 31.9 °F 30.33 in ENE 5.0 mph 5.0 mph 91 % 0.00 in 62 W/m2
09:45 34.4 °F 32.0 °F 30.33 in NE 4.0 mph 6.0 mph 91 % 0.00 in 88 W/m2
09:55 34.5 °F 32.1 °F 30.33 in NE 3.0 mph 7.0 mph 91 % 0.00 in 67 W/m2
10:00 34.6 °F 32.2 °F 30.33 in NE 2.0 mph 2.0 mph 91 % 0.00 in 63 W/m2
10:05 34.7 °F 32.1 °F 30.33 in NNE 3.0 mph 3.0 mph 90 % 0.00 in 62 W/m2
10:10 34.8 °F 32.2 °F 30.33 in NE 3.0 mph 3.0 mph 90 % 0.00 in 37 W/m2
10:15 34.8 °F 32.2 °F 30.33 in ENE 2.0 mph 6.0 mph 90 % 0.00 in 42 W/m2
10:20 34.8 °F 32.2 °F 30.33 in ENE 3.0 mph 6.0 mph 90 % 0.00 in 33 W/m2
10:25 34.7 °F 32.1 °F 30.33 in NE 4.0 mph 6.0 mph 90 % 0.00 in 39 W/m2
10:30 34.7 °F 32.1 °F 30.33 in ENE 5.0 mph 5.0 mph 90 % 0.00 in 23 W/m2
10:35 34.7 °F 32.1 °F 30.33 in ENE 5.0 mph 6.0 mph 90 % 0.00 in 51 W/m2
10:40 34.8 °F 32.2 °F 30.34 in ENE 4.0 mph 4.0 mph 90 % 0.00 in 60 W/m2
10:50 34.9 °F 32.5 °F 30.34 in ENE 4.0 mph 6.0 mph 91 % 0.00 in 76 W/m2
10:55 34.9 °F 32.5 °F 30.34 in ENE 5.0 mph 6.0 mph 91 % 0.00 in 90 W/m2
11:00 35.0 °F 32.6 °F 30.33 in NE 4.0 mph 6.0 mph 91 % 0.00 in 95 W/m2
11:05 35.1 °F 32.7 °F 30.33 in ESE 3.0 mph 6.0 mph 91 % 0.00 in 109 W/m2
11:10 35.2 °F 32.8 °F 30.33 in NE 3.0 mph 3.0 mph 91 % 0.00 in 148 W/m2
11:20 35.6 °F 33.2 °F 30.33 in NNE 3.0 mph 6.0 mph 91 % 0.00 in 60 W/m2
11:25 35.7 °F 33.1 °F 30.34 in ESE 4.0 mph 6.0 mph 90 % 0.00 in 98 W/m2
11:30 35.6 °F 33.0 °F 30.34 in NE 6.0 mph 6.0 mph 90 % 0.00 in 56 W/m2
11:35 35.4 °F 32.8 °F 30.34 in NNE 7.0 mph 7.0 mph 90 % 0.00 in 37 W/m2
11:45 34.7 °F 32.3 °F 30.34 in ENE 6.0 mph 7.0 mph 91 % 0.00 in 60 W/m2
11:50 34.6 °F 32.5 °F 30.33 in NNE 4.0 mph 4.0 mph 92 % 0.00 in 107 W/m2
11:55 34.6 °F 32.8 °F 30.33 in NE 3.0 mph 7.0 mph 93 % 0.00 in 102 W/m2
12:00 34.6 °F 32.8 °F 30.33 in NE 4.0 mph 4.0 mph 93 % 0.00 in 86 W/m2
12:05 34.7 °F 32.9 °F 30.33 in East 4.0 mph 6.0 mph 93 % 0.00 in 95 W/m2
12:10 34.8 °F 33.0 °F 30.33 in ENE 3.0 mph 6.0 mph 93 % 0.00 in 67 W/m2
12:15 34.8 °F 33.0 °F 30.33 in NE 4.0 mph 6.0 mph 93 % 0.00 in 70 W/m2
12:20 34.8 °F 33.0 °F 30.33 in NE 4.0 mph 4.0 mph 93 % 0.00 in 44 W/m2
12:30 34.8 °F 33.0 °F 30.33 in North 3.0 mph 3.0 mph 93 % 0.00 in 90 W/m2
12:35 34.9 °F 33.1 °F 30.33 in East 2.0 mph 6.0 mph 93 % 0.00 in 81 W/m2
12:40 35.0 °F 33.2 °F 30.33 in NE 4.0 mph 6.0 mph 93 % 0.00 in 69 W/m2
12:45 35.0 °F 33.2 °F 30.33 in NE 5.0 mph 6.0 mph 93 % 0.00 in 139 W/m2
12:50 35.1 °F 33.3 °F 30.33 in NE 4.0 mph 6.0 mph 93 % 0.00 in 179 W/m2
13:00 35.6 °F 33.8 °F 30.32 in ENE 3.0 mph 3.0 mph 93 % 0.00 in 134 W/m2
13:05 35.8 °F 34.0 °F 30.32 in ENE 1.0 mph 6.0 mph 93 % 0.00 in 162 W/m2
13:10 36.0 °F 34.2 °F 30.32 in North 2.0 mph 6.0 mph 93 % 0.00 in 171 W/m2
13:15 36.0 °F 33.9 °F 30.32 in NNE 4.0 mph 6.0 mph 92 % 0.00 in 142 W/m2
13:20 36.1 °F 34.0 °F 30.32 in ENE 4.0 mph 4.0 mph 92 % 0.00 in 90 W/m2
13:30 36.1 °F 33.7 °F 30.32 in NE 4.0 mph 4.0 mph 91 % 0.00 in 95 W/m2
13:40 35.9 °F 33.3 °F 30.32 in East 4.0 mph 4.0 mph 90 % 0.00 in 199 W/m2
13:45 35.8 °F 33.2 °F 30.32 in East 5.0 mph 10.0 mph 90 % 0.00 in 127 W/m2
13:50 35.7 °F 33.1 °F 30.32 in ENE 5.0 mph 6.0 mph 90 % 0.00 in 128 W/m2
13:55 35.8 °F 33.2 °F 30.32 in ENE 4.0 mph 6.0 mph 90 % 0.00 in 120 W/m2
14:00 36.0 °F 33.6 °F 30.32 in NE 3.0 mph 8.0 mph 91 % 0.00 in 47 W/m2
14:10 36.1 °F 33.7 °F 30.32 in ENE 5.0 mph 5.0 mph 91 % 0.00 in 171 W/m2
14:15 36.2 °F 33.8 °F 30.32 in ENE 4.0 mph 6.0 mph 91 % 0.00 in 197 W/m2
14:20 36.3 °F 33.6 °F 30.32 in NNE 5.0 mph 6.0 mph 90 % 0.00 in 84 W/m2
14:25 36.3 °F 33.6 °F 30.32 in ENE 6.0 mph 8.0 mph 90 % 0.00 in 35 W/m2
14:30 36.1 °F 33.2 °F 30.32 in NE 7.0 mph 9.0 mph 89 % 0.00 in 46 W/m2
14:40 35.8 °F 32.9 °F 30.32 in East 5.0 mph 5.0 mph 89 % 0.00 in 62 W/m2
14:45 35.8 °F 33.2 °F 30.32 in NE 4.0 mph 6.0 mph 90 % 0.00 in 83 W/m2
14:50 35.8 °F 32.9 °F 30.31 in NNE 4.0 mph 4.0 mph 89 % 0.00 in 86 W/m2
14:55 35.8 °F 32.9 °F 30.31 in NNE 3.0 mph 6.0 mph 89 % 0.00 in 93 W/m2
15:00 35.9 °F 33.0 °F 30.32 in ENE 3.0 mph 6.0 mph 89 % 0.00 in 91 W/m2
15:05 36.0 °F 33.1 °F 30.32 in NE 3.0 mph 6.0 mph 89 % 0.00 in 90 W/m2
15:15 36.1 °F 33.2 °F 30.32 in ENE 4.0 mph 6.0 mph 89 % 0.00 in 65 W/m2
15:20 36.1 °F 33.2 °F 30.31 in NNE 4.0 mph 4.0 mph 89 % 0.00 in 63 W/m2
15:25 36.1 °F 33.2 °F 30.32 in ENE 4.0 mph 6.0 mph 89 % 0.00 in 54 W/m2
15:30 36.1 °F 33.2 °F 30.32 in NE 5.0 mph 5.0 mph 89 % 0.00 in 28 W/m2
15:35 36.2 °F 33.3 °F 30.32 in ENE 5.0 mph 10.0 mph 89 % 0.00 in 33 W/m2
15:45 36.2 °F 33.3 °F 30.32 in NE 5.0 mph 6.0 mph 89 % 0.00 in 21 W/m2
15:50 36.2 °F 33.3 °F 30.32 in North 4.0 mph 4.0 mph 89 % 0.00 in 11 W/m2
15:55 36.0 °F 33.1 °F 30.32 in NNE 5.0 mph 8.0 mph 89 % 0.00 in 12 W/m2
16:00 35.7 °F 32.8 °F 30.32 in ENE 6.0 mph 7.0 mph 89 % 0.00 in 11 W/m2
16:05 35.4 °F 32.8 °F 30.32 in NE 5.0 mph 7.0 mph 90 % 0.00 in 9 W/m2
16:10 35.1 °F 32.5 °F 30.32 in NE 5.0 mph 10.0 mph 90 % 0.00 in 11 W/m2
16:20 34.8 °F 32.4 °F 30.32 in NNW 3.0 mph 6.0 mph 91 % 0.00 in 14 W/m2
16:25 34.8 °F 32.4 °F 30.32 in NNE 2.0 mph 6.0 mph 91 % 0.00 in 16 W/m2
16:30 34.7 °F 32.3 °F 30.32 in NE 2.0 mph 2.0 mph 91 % 0.00 in 12 W/m2
16:35 34.7 °F 32.3 °F 30.32 in NNE 1.0 mph 6.0 mph 91 % 0.00 in 11 W/m2
16:40 34.7 °F 32.3 °F 30.32 in NE 2.0 mph 2.0 mph 91 % 0.00 in 9 W/m2
16:50 34.7 °F 32.1 °F 30.32 in East 2.0 mph 2.0 mph 90 % 0.00 in 7 W/m2
16:55 34.7 °F 32.1 °F 30.32 in NNE 2.0 mph 5.0 mph 90 % 0.00 in 7 W/m2
17:05 34.7 °F 32.1 °F 30.32 in NE 2.0 mph 6.0 mph 90 % 0.00 in 0 W/m2
17:10 34.7 °F 32.1 °F 30.32 in North 3.0 mph 6.0 mph 90 % 0.00 in 0 W/m2
17:15 34.6 °F 31.7 °F 30.32 in NNE 4.0 mph 6.0 mph 89 % 0.00 in 0 W/m2
17:20 34.6 °F 31.7 °F 30.32 in NNE 4.0 mph 6.0 mph 89 % 0.00 in 0 W/m2
17:30 34.5 °F 31.6 °F 30.32 in NE 4.0 mph 4.0 mph 89 % 0.00 in 0 W/m2
17:35 34.5 °F 31.6 °F 30.32 in NNW 5.0 mph 6.0 mph 89 % 0.00 in 0 W/m2
17:40 34.5 °F 31.6 °F 30.32 in NE 3.0 mph 6.0 mph 89 % 0.00 in 0 W/m2
17:45 34.5 °F 31.6 °F 30.33 in ENE 3.0 mph 6.0 mph 89 % 0.00 in 0 W/m2
17:50 34.5 °F 31.3 °F 30.33 in NE 3.0 mph 3.0 mph 88 % 0.00 in 0 W/m2
17:55 34.5 °F 31.3 °F 30.33 in NNE 3.0 mph 4.0 mph 88 % 0.00 in 0 W/m2
18:00 34.5 °F 31.3 °F 30.33 in NNE 2.0 mph 2.0 mph 88 % 0.00 in 0 W/m2
18:05 34.6 °F 31.4 °F 30.33 in NNE 2.0 mph 4.0 mph 88 % 0.00 in 0 W/m2
18:10 34.6 °F 31.4 °F 30.33 in NNE 3.0 mph 6.0 mph 88 % 0.00 in 0 W/m2
18:20 34.5 °F 31.0 °F 30.33 in NNE 2.0 mph 2.0 mph 87 % 0.00 in 0 W/m2
18:30 34.5 °F 31.0 °F 30.33 in Calm   6.0 mph 87 % 0.00 in 0 W/m2
18:40 34.5 °F 31.0 °F 30.33 in NE 2.0 mph 2.0 mph 87 % 0.00 in 0 W/m2
18:50 34.4 °F 30.9 °F 30.33 in NE 2.0 mph 4.0 mph 87 % 0.00 in 0 W/m2
19:00 34.4 °F 30.6 °F 30.33 in NNW 5.0 mph 5.0 mph 86 % 0.00 in 0 W/m2
19:10 34.4 °F 30.9 °F 30.33 in NW 3.0 mph 3.0 mph 87 % 0.00 in 0 W/m2
19:15 34.3 °F 30.8 °F 30.34 in NNW 3.0 mph 3.0 mph 87 % 0.00 in 0 W/m2
19:20 34.3 °F 30.8 °F 30.34 in North 2.0 mph 2.0 mph 87 % 0.00 in 0 W/m2
19:25 34.3 °F 30.8 °F 30.34 in North 2.0 mph 5.0 mph 87 % 0.00 in 0 W/m2
19:35 34.3 °F 30.8 °F 30.34 in NNW 4.0 mph 5.0 mph 87 % 0.00 in 0 W/m2
19:40 34.2 °F 30.7 °F 30.34 in NNW 4.0 mph 7.0 mph 87 % 0.00 in 0 W/m2
19:45 34.2 °F 30.7 °F 30.34 in NNW 3.0 mph 7.0 mph 87 % 0.00 in 0 W/m2
19:50 34.2 °F 30.7 °F 30.34 in NNE 3.0 mph 3.0 mph 87 % 0.00 in 0 W/m2
19:55 34.2 °F 30.7 °F 30.34 in North 3.0 mph 7.0 mph 87 % 0.00 in 0 W/m2
20:05 34.3 °F 30.5 °F 30.34 in North 6.0 mph 8.0 mph 86 % 0.00 in 0 W/m2
20:10 34.3 °F 30.5 °F 30.34 in NNW 5.0 mph 8.0 mph 86 % 0.00 in 0 W/m2
20:15 34.3 °F 30.5 °F 30.34 in NNE 4.0 mph 8.0 mph 86 % 0.00 in 0 W/m2
20:20 34.3 °F 30.5 °F 30.34 in NNE 3.0 mph 9.0 mph 86 % 0.00 in 0 W/m2
20:25 34.3 °F 30.5 °F 30.33 in NNE 4.0 mph 9.0 mph 86 % 0.00 in 0 W/m2
20:30 34.3 °F 30.5 °F 30.34 in NNW 3.0 mph 8.0 mph 86 % 0.00 in 0 W/m2
20:40 34.3 °F 30.3 °F 30.33 in NW 5.0 mph 5.0 mph 85 % 0.00 in 0 W/m2
20:45 34.3 °F 30.3 °F 30.33 in NNW 5.0 mph 7.0 mph 85 % 0.00 in 0 W/m2
20:50 34.3 °F 30.3 °F 30.33 in NNW 4.0 mph 8.0 mph 85 % 0.00 in 0 W/m2
20:55 34.3 °F 30.3 °F 30.33 in NNE 4.0 mph 8.0 mph 85 % 0.00 in 0 W/m2
21:00 34.2 °F 30.2 °F 30.33 in NNW 4.0 mph 8.0 mph 85 % 0.00 in 0 W/m2
21:05 34.3 °F 30.3 °F 30.33 in North 5.0 mph 8.0 mph 85 % 0.00 in 0 W/m2
21:10 34.3 °F 30.3 °F 30.33 in NNW 5.0 mph 5.0 mph 85 % 0.00 in 0 W/m2
21:20 34.3 °F 30.3 °F 30.33 in NW 4.0 mph 4.0 mph 85 % 0.00 in 0 W/m2
21:25 34.3 °F 30.3 °F 30.33 in NNE 3.0 mph 7.0 mph 85 % 0.00 in 0 W/m2
21:30 34.3 °F 30.3 °F 30.33 in North 4.0 mph 8.0 mph 85 % 0.00 in 0 W/m2
21:40 34.4 °F 30.4 °F 30.33 in NNE 6.0 mph 8.0 mph 85 % 0.00 in 0 W/m2
21:45 34.4 °F 30.4 °F 30.34 in NNW 5.0 mph 8.0 mph 85 % 0.00 in 0 W/m2
21:55 34.5 °F 30.5 °F 30.33 in NNW 5.0 mph 8.0 mph 85 % 0.00 in 0 W/m2
22:00 34.4 °F 30.4 °F 30.33 in NNW 3.0 mph 3.0 mph 85 % 0.00 in 0 W/m2
22:05 34.4 °F 30.6 °F 30.33 in NNW 3.0 mph 8.0 mph 86 % 0.00 in 0 W/m2
22:10 34.3 °F 30.5 °F 30.33 in NW 3.0 mph 3.0 mph 86 % 0.00 in 0 W/m2
22:20 34.2 °F 30.7 °F 30.33 in NNW 4.0 mph 8.0 mph 87 % 0.00 in 0 W/m2
22:30 34.2 °F 30.7 °F 30.33 in NW 4.0 mph 9.0 mph 87 % 0.00 in 0 W/m2
22:35 34.2 °F 30.7 °F 30.33 in NNW 5.0 mph 9.0 mph 87 % 0.00 in 0 W/m2
22:40 34.2 °F 30.7 °F 30.33 in NNW 4.0 mph 8.0 mph 87 % 0.00 in 0 W/m2
22:45 34.2 °F 30.7 °F 30.33 in NW 4.0 mph 8.0 mph 87 % 0.00 in 0 W/m2
22:50 34.2 °F 30.7 °F 30.32 in NNW 5.0 mph 5.0 mph 87 % 0.00 in 0 W/m2
23:00 34.2 °F 30.7 °F 30.32 in NNW 4.0 mph 8.0 mph 87 % 0.00 in 0 W/m2
23:10 34.3 °F 30.8 °F 30.32 in North 4.0 mph 8.0 mph 87 % 0.00 in 0 W/m2
23:15 34.3 °F 30.8 °F 30.32 in NNW 3.0 mph 10.0 mph 87 % 0.00 in 0 W/m2
23:20 34.3 °F 30.8 °F 30.32 in NNW 5.0 mph 8.0 mph 87 % 0.00 in 0 W/m2
23:25 34.4 °F 30.6 °F 30.32 in NW 7.0 mph 8.0 mph 86 % 0.00 in 0 W/m2
23:35 34.5 °F 30.7 °F 30.32 in North 5.0 mph 8.0 mph 86 % 0.00 in 0 W/m2
23:40 34.5 °F 30.7 °F 30.31 in NNW 5.0 mph 8.0 mph 86 % 0.00 in 0 W/m2
23:45 34.6 °F 30.6 °F 30.31 in NNW 6.0 mph 8.0 mph 85 % 0.00 in 0 W/m2
23:50 34.6 °F 30.6 °F 30.31 in NW 6.0 mph 8.0 mph 85 % 0.00 in 0 W/m2
23:55 34.7 °F 30.7 °F 30.31 in NNE 4.0 mph 8.0 mph 85 % 0.00 in 0 W/m2
Delerius-Weather
Compliments of Weather Underground - 2 mb

Data updates at regular intervals.